Hourly Data Report for October 21, 2013

All times are specified in Local Standard Time (LST). Add 1 hour to adjust for Daylight Saving Time where and when it is observed.

KAMLOOPS A
BRITISH COLUMBIA

50°42'09.000" N
120°26'55.000" W
345.30 m
1163781
71887
YKA

Download Data

Hourly Data (October 2013)
Hourly Data Report for October 21, 2013
Temp Definition
°C
Dew Point Temp Definition
°C
Rel Hum Definition
%
Wind Dir Definition
10's deg

Wind Spd Definition
km/h
Visibility Definition
km
Stn Press Definition
kPa
Hmdx Definition


Wind Chill Definition


Weather Definition


TIME
00:00 Legend Double Dagger 6.9 4.7 86 12 4 64.4 98.23     LegendNANA
01:00 Legend Double Dagger 6.0 4.8 92 13 5 64.4 98.27     Clear
02:00 Legend Double Dagger 4.6 3.4 92 9 5 64.4 98.27     LegendNANA
03:00 Legend Double Dagger 4.0 3.0 93 7 7 64.4 98.30     LegendNANA
04:00 Legend Double Dagger 3.3 2.3 93 3 4 64.4 98.31     Clear
05:00 Legend Double Dagger 3.2 2.3 94 12 4 64.4 98.36     LegendNANA
06:00 Legend Double Dagger 2.4 1.5 94 8 3 48.3 98.35     Fog
07:00 Legend Double Dagger 1.3 0.4 94 7 5 32.2 98.39     Mainly Clear
08:00 Legend Double Dagger 4.1 3.4 95 8 9 0.8 98.43     Fog
09:00 Legend Double Dagger 4.7 4.1 96 8 6 0.6 98.41     Fog
10:00 Legend Double Dagger 6.6 4.8 88 12 6 8.1 98.39     Fog
11:00 Legend Double Dagger 8.9 4.9 76 13 7 64.4 98.32     LegendNANA
12:00 Legend Double Dagger 11.4 4.9 64 10 11 64.4 98.23     LegendNANA
13:00 Legend Double Dagger 13.6 5.1 56 10 15 64.4 98.14     Mainly Clear
14:00 Legend Double Dagger 14.5 5.4 54 9 17 64.4 98.07     LegendNANA
15:00 Legend Double Dagger 15.4 5.7 52 10 14 64.4 98.02     LegendNANA
16:00 Legend Double Dagger 14.6 6.0 56 9 15 64.4 97.98     Clear
17:00 Legend Double Dagger 12.0 6.3 68 7 14 64.4 97.97     LegendNANA
18:00 Legend Double Dagger 9.8 6.2 78 9 10 64.4 98.03     LegendNANA
19:00 Legend Double Dagger 9.4 6.5 82 10 5 64.4 98.05     Clear
20:00 Legend Double Dagger 7.9 5.6 85 15 4 64.4 98.11     LegendNANA
21:00 Legend Double Dagger 6.9 5.5 91 4 2 64.4 98.17     LegendNANA
22:00 Legend Double Dagger 6.4 5.4 93 17 2 64.4 98.19     Clear
23:00 Legend Double Dagger 3.9 2.7 92 7 5 64.4 98.22     LegendNANA

Notes on Data Quality.

Legend

  • E = Estimated
  • M = Missing
  • NA = Not Available
  • ‡ = Partner data that is not subject to review by the National Climate Archives
Date modified: